sat.trackr.live / text

‹ back to catalog

SPAWAR-CAL-R

NORAD 43776 · 2018-099U

PAYLOAD ACTIVE UNKNOWN

§ Identity

Operator
Country
US
Launch date
2018-12-03
Launch site
AFWTR
Launch vehicle
Mass (kg)
RCS (m²)

External: N2YO · Heavens-Above · Gunter

§ Orbital elements

Epoch: 2026-09-20T01:01:24.343104Z

Period
95.62 min
Inclination
97.4306°
Eccentricity
0.0020810
Mean motion
15.05959114 rev/d
Perigee alt
534.1 km
Apogee alt
563.0 km
Semi-major
6,926.7 km
B*
1.0546e-4
RAAN
300.0629°
Arg perigee
40.2972°
Mean anomaly
319.9793°
Rev number
42,627

§ Raw data

SPAWAR-CAL-R1 43776U 18099U   26263.04264286  .00001482  00000+0  10546-3 0  99982 43776  97.4306 300.0629 0020810  40.2972 319.9793 15.05959114426275

JSON: /api/v1/satellites/43776 · /tle

For live sub-satellite position, see the globe view (requires WebGL).

§ Visibility from observer

Set your observer location to see the next 7 days of passes ≥ 10°. The values pass through the URL so the page stays shareable.

No JS? Fill the form by hand. The geolocation button needs JavaScript.